����������;��������(kVARh)
2019-08-19 00:00;15,8
2019-08-19 00:15;15,05
2019-08-19 00:30;15,65
2019-08-19 00:45;16,65
2019-08-19 01:00;17,1
2019-08-19 01:15;19,2
2019-08-19 01:30;18,15
2019-08-19 01:45;17,3
2019-08-19 02:00;18,6
2019-08-19 02:15;18,75
2019-08-19 02:30;19,15
2019-08-19 02:45;18,8
2019-08-19 03:00;18,9
2019-08-19 03:15;19,75
2019-08-19 03:30;21,8
2019-08-19 03:45;18,7
2019-08-19 04:00;19,2
2019-08-19 04:15;18,95
2019-08-19 04:30;19,75
2019-08-19 04:45;19,45
2019-08-19 05:00;19,45
2019-08-19 05:15;19,5
2019-08-19 05:30;19,65
2019-08-19 05:45;19,05
2019-08-19 06:00;17,25
2019-08-19 06:15;16,9
2019-08-19 06:30;16,75
2019-08-19 06:45;17,15
2019-08-19 07:00;17,5
2019-08-19 07:15;14,55
2019-08-19 07:30;16,1
2019-08-19 07:45;16,35
2019-08-19 08:00;14,35
2019-08-19 08:15;6,15
2019-08-19 08:30;0
2019-08-19 08:45;0
2019-08-19 09:00;0
2019-08-19 09:15;0
2019-08-19 09:30;0
2019-08-19 09:45;0
2019-08-19 10:00;0
2019-08-19 10:15;0
2019-08-19 10:30;0
2019-08-19 10:45;0
2019-08-19 11:00;0
2019-08-19 11:15;0
2019-08-19 11:30;0
2019-08-19 11:45;0
2019-08-19 12:00;2,25
2019-08-19 12:15;48,65
2019-08-19 12:30;52,4
2019-08-19 12:45;56,35
2019-08-19 13:00;57,3
2019-08-19 13:15;47,75
2019-08-19 13:30;48,6
2019-08-19 13:45;51,7
2019-08-19 14:00;47,6
2019-08-19 14:15;50,55
2019-08-19 14:30;47,9
2019-08-19 14:45;46,85
2019-08-19 15:00;52,8
2019-08-19 15:15;47,7
2019-08-19 15:30;52
2019-08-19 15:45;44
2019-08-19 16:00;46,2
2019-08-19 16:15;40,1
2019-08-19 16:30;41
2019-08-19 16:45;31,15
2019-08-19 17:00;36,5
2019-08-19 17:15;30,35
2019-08-19 17:30;28,5
2019-08-19 17:45;22,3
2019-08-19 18:00;20,65
2019-08-19 18:15;19,65
2019-08-19 18:30;23,8
2019-08-19 18:45;27,8
2019-08-19 19:00;27,55
2019-08-19 19:15;27,8
2019-08-19 19:30;28,65
2019-08-19 19:45;29,4
2019-08-19 20:00;28,95
2019-08-19 20:15;27,55
2019-08-19 20:30;27,75
2019-08-19 20:45;26,25
2019-08-19 21:00;25,8
2019-08-19 21:15;27,15
2019-08-19 21:30;29,35
2019-08-19 21:45;30,3
2019-08-19 22:00;29,4
2019-08-19 22:15;27
2019-08-19 22:30;22,15
2019-08-19 22:45;20,75
2019-08-19 23:00;20,4
2019-08-19 23:15;17,9
2019-08-19 23:30;17,25
2019-08-19 23:45;19,4
2019-08-20 00:00;16,15
2019-08-20 00:15;13,85
2019-08-20 00:30;12,7
2019-08-20 00:45;12,35
2019-08-20 01:00;13,7
2019-08-20 01:15;13,55
2019-08-20 01:30;12,55
2019-08-20 01:45;13,2
2019-08-20 02:00;13
2019-08-20 02:15;13,45
2019-08-20 02:30;15,35
2019-08-20 02:45;16
2019-08-20 03:00;17
2019-08-20 03:15;17,5
2019-08-20 03:30;19,1
2019-08-20 03:45;19
2019-08-20 04:00;18,85
2019-08-20 04:15;19,45
2019-08-20 04:30;19,3
2019-08-20 04:45;20,35
2019-08-20 05:00;19,2
2019-08-20 05:15;19,65
2019-08-20 05:30;20,3
2019-08-20 05:45;18,55
2019-08-20 06:00;14,2
2019-08-20 06:15;14,7
2019-08-20 06:30;13,55
2019-08-20 06:45;15
2019-08-20 07:00;14,5
2019-08-20 07:15;18,1
2019-08-20 07:30;21,35
2019-08-20 07:45;30,85
2019-08-20 08:00;14,05
2019-08-20 08:15;21,15
2019-08-20 08:30;28,7
2019-08-20 08:45;25,4
2019-08-20 09:00;27,95
2019-08-20 09:15;28,65
2019-08-20 09:30;37,2
2019-08-20 09:45;41,25
2019-08-20 10:00;37,05
2019-08-20 10:15;37,8
2019-08-20 10:30;36,55
2019-08-20 10:45;39,7
2019-08-20 11:00;39,6
2019-08-20 11:15;46,6
2019-08-20 11:30;46,75
2019-08-20 11:45;45,1
2019-08-20 12:00;41,45
2019-08-20 12:15;49,25
2019-08-20 12:30;36,35
2019-08-20 12:45;26,7
2019-08-20 13:00;52,75
2019-08-20 13:15;49,65
2019-08-20 13:30;47,05
2019-08-20 13:45;52,3
2019-08-20 14:00;53,3
2019-08-20 14:15;51,8
2019-08-20 14:30;48,3
2019-08-20 14:45;51,9
2019-08-20 15:00;51,6
2019-08-20 15:15;43,7
2019-08-20 15:30;42,85
2019-08-20 15:45;43,05
2019-08-20 16:00;43,55
2019-08-20 16:15;36,55
2019-08-20 16:30;36,25
2019-08-20 16:45;33,65
2019-08-20 17:00;32,9
2019-08-20 17:15;32,6
2019-08-20 17:30;31,1
2019-08-20 17:45;29,35
2019-08-20 18:00;27,3
2019-08-20 18:15;26,35
2019-08-20 18:30;26,7
2019-08-20 18:45;27,55
2019-08-20 19:00;26,4
2019-08-20 19:15;26,7
2019-08-20 19:30;27,45
2019-08-20 19:45;28,9
2019-08-20 20:00;28,85
2019-08-20 20:15;26,9
2019-08-20 20:30;27,7
2019-08-20 20:45;26,75
2019-08-20 21:00;27,8
2019-08-20 21:15;30,7
2019-08-20 21:30;30,7
2019-08-20 21:45;31,65
2019-08-20 22:00;28,45
2019-08-20 22:15;26,85
2019-08-20 22:30;26,65
2019-08-20 22:45;26,8
2019-08-20 23:00;22,2
2019-08-20 23:15;22,5
2019-08-20 23:30;24,3
2019-08-20 23:45;27,55
2019-08-21 00:00;14,65
2019-08-21 00:15;14,5
2019-08-21 00:30;11,7
2019-08-21 00:45;11,85
2019-08-21 01:00;12,75
2019-08-21 01:15;13,5
2019-08-21 01:30;14,35
2019-08-21 01:45;14,1
2019-08-21 02:00;15,4
2019-08-21 02:15;14,25
2019-08-21 02:30;15,8
2019-08-21 02:45;16,4
2019-08-21 03:00;15,5
2019-08-21 03:15;17,2
2019-08-21 03:30;17,6
2019-08-21 03:45;18,65
2019-08-21 04:00;17,5
2019-08-21 04:15;17,85
2019-08-21 04:30;17,9
2019-08-21 04:45;16,85
2019-08-21 05:00;16,95
2019-08-21 05:15;16
2019-08-21 05:30;17
2019-08-21 05:45;16,45
2019-08-21 06:00;15,25
2019-08-21 06:15;12,85
2019-08-21 06:30;12,85
2019-08-21 06:45;11,05
2019-08-21 07:00;13,85
2019-08-21 07:15;11,15
2019-08-21 07:30;14,5
2019-08-21 07:45;33,45
2019-08-21 08:00;27,15
2019-08-21 08:15;30,25
2019-08-21 08:30;24
2019-08-21 08:45;25,45
2019-08-21 09:00;25,35
2019-08-21 09:15;24,05
2019-08-21 09:30;27,25
2019-08-21 09:45;31,65
2019-08-21 10:00;38,7
2019-08-21 10:15;43,2
2019-08-21 10:30;36,35
2019-08-21 10:45;29,25
2019-08-21 11:00;42,55
2019-08-21 11:15;42,4
2019-08-21 11:30;46,4
2019-08-21 11:45;54,75
2019-08-21 12:00;54,4
2019-08-21 12:15;52,75
2019-08-21 12:30;54,25
2019-08-21 12:45;51,25
2019-08-21 13:00;49
2019-08-21 13:15;47,7
2019-08-21 13:30;48,65
2019-08-21 13:45;46,65
2019-08-21 14:00;53,8
2019-08-21 14:15;53,45
2019-08-21 14:30;52,7
2019-08-21 14:45;48,55
2019-08-21 15:00;47,6
2019-08-21 15:15;44,7
2019-08-21 15:30;48,05
2019-08-21 15:45;46,15
2019-08-21 16:00;38,6
2019-08-21 16:15;33,5
2019-08-21 16:30;34,4
2019-08-21 16:45;32,85
2019-08-21 17:00;34,85
2019-08-21 17:15;34,15
2019-08-21 17:30;31,35
2019-08-21 17:45;30,25
2019-08-21 18:00;28,5
2019-08-21 18:15;29,35
2019-08-21 18:30;28,75
2019-08-21 18:45;28,45
2019-08-21 19:00;28,9
2019-08-21 19:15;27,7
2019-08-21 19:30;29,3
2019-08-21 19:45;23,4
2019-08-21 20:00;18,1
2019-08-21 20:15;18,5
2019-08-21 20:30;18
2019-08-21 20:45;16,85
2019-08-21 21:00;17,55
2019-08-21 21:15;18,6
2019-08-21 21:30;19,15
2019-08-21 21:45;19,85
2019-08-21 22:00;18,8
2019-08-21 22:15;18,1
2019-08-21 22:30;19,1
2019-08-21 22:45;16
2019-08-21 23:00;13,9
2019-08-21 23:15;14,1
2019-08-21 23:30;16,5
2019-08-21 23:45;16,2
2019-08-22 00:00;10,5
2019-08-22 00:15;10,25
2019-08-22 00:30;10,75
2019-08-22 00:45;11,3
2019-08-22 01:00;13,9
2019-08-22 01:15;16,75
2019-08-22 01:30;15,25
2019-08-22 01:45;14,8
2019-08-22 02:00;14,55
2019-08-22 02:15;15,55
2019-08-22 02:30;16,55
2019-08-22 02:45;15,5
2019-08-22 03:00;16,3
2019-08-22 03:15;16,85
2019-08-22 03:30;17,9
2019-08-22 03:45;18,05
2019-08-22 04:00;17,15
2019-08-22 04:15;15,4
2019-08-22 04:30;15,95
2019-08-22 04:45;15,5
2019-08-22 05:00;16
2019-08-22 05:15;15,5
2019-08-22 05:30;15,95
2019-08-22 05:45;15
2019-08-22 06:00;13,75
2019-08-22 06:15;13,9
2019-08-22 06:30;12,95
2019-08-22 06:45;20,7
2019-08-22 07:00;22,55
2019-08-22 07:15;21,6
2019-08-22 07:30;21,25
2019-08-22 07:45;39,35
2019-08-22 08:00;44,75
2019-08-22 08:15;31,45
2019-08-22 08:30;33,4
2019-08-22 08:45;35,95
2019-08-22 09:00;37,2
2019-08-22 09:15;35,2
2019-08-22 09:30;33,15
2019-08-22 09:45;36,3
2019-08-22 10:00;41,3
2019-08-22 10:15;36,95
2019-08-22 10:30;39,6
2019-08-22 10:45;35,3
2019-08-22 11:00;41,85
2019-08-22 11:15;50,55
2019-08-22 11:30;47,15
2019-08-22 11:45;44,1
2019-08-22 12:00;53,9
2019-08-22 12:15;52,25
2019-08-22 12:30;52,3
2019-08-22 12:45;52,15
2019-08-22 13:00;51,55
2019-08-22 13:15;44,35
2019-08-22 13:30;48,7
2019-08-22 13:45;44
2019-08-22 14:00;41,55
2019-08-22 14:15;46
2019-08-22 14:30;46,05
2019-08-22 14:45;39,55
2019-08-22 15:00;46,6
2019-08-22 15:15;45,15
2019-08-22 15:30;51,25
2019-08-22 15:45;50,1
2019-08-22 16:00;43,35
2019-08-22 16:15;44,25
2019-08-22 16:30;24,3
2019-08-22 16:45;33,95
2019-08-22 17:00;30,75
2019-08-22 17:15;28,75
2019-08-22 17:30;29,95
2019-08-22 17:45;23,9
2019-08-22 18:00;27,2
2019-08-22 18:15;29,05
2019-08-22 18:30;26,7
2019-08-22 18:45;27
2019-08-22 19:00;26,35
2019-08-22 19:15;26,4
2019-08-22 19:30;27,65
2019-08-22 19:45;28,05
2019-08-22 20:00;27,65
2019-08-22 20:15;27,9
2019-08-22 20:30;23,45
2019-08-22 20:45;16
2019-08-22 21:00;16,75
2019-08-22 21:15;16,7
2019-08-22 21:30;18,3
2019-08-22 21:45;19,35
2019-08-22 22:00;18,8
2019-08-22 22:15;16,9
2019-08-22 22:30;18,95
2019-08-22 22:45;18,9
2019-08-22 23:00;23,3
2019-08-22 23:15;24,45
2019-08-22 23:30;22,3
2019-08-22 23:45;14,15
2019-08-23 00:00;11,55
2019-08-23 00:15;12,35
2019-08-23 00:30;13,55
2019-08-23 00:45;12,05
2019-08-23 01:00;11,45
2019-08-23 01:15;10,3
2019-08-23 01:30;11
2019-08-23 01:45;10,05
2019-08-23 02:00;8,75
2019-08-23 02:15;8,8
2019-08-23 02:30;9,5
2019-08-23 02:45;10,1
2019-08-23 03:00;10
2019-08-23 03:15;11,15
2019-08-23 03:30;12,5
2019-08-23 03:45;12
2019-08-23 04:00;11,7
2019-08-23 04:15;10,3
2019-08-23 04:30;10,65
2019-08-23 04:45;10,9
2019-08-23 05:00;10,8
2019-08-23 05:15;14,1
2019-08-23 05:30;14,6
2019-08-23 05:45;13,2
2019-08-23 06:00;13,05
2019-08-23 06:15;11,25
2019-08-23 06:30;13,25
2019-08-23 06:45;15,55
2019-08-23 07:00;14,6
2019-08-23 07:15;19,6
2019-08-23 07:30;25,3
2019-08-23 07:45;39,6
2019-08-23 08:00;49
2019-08-23 08:15;36,4
2019-08-23 08:30;33,85
2019-08-23 08:45;32,7
2019-08-23 09:00;35,85
2019-08-23 09:15;40,8
2019-08-23 09:30;41,4
2019-08-23 09:45;47,95
2019-08-23 10:00;40,1
2019-08-23 10:15;44,45
2019-08-23 10:30;50,05
2019-08-23 10:45;49,3
2019-08-23 11:00;45,75
2019-08-23 11:15;51,75
2019-08-23 11:30;47,85
2019-08-23 11:45;51,8
2019-08-23 12:00;55,9
2019-08-23 12:15;56,9
2019-08-23 12:30;53,05
2019-08-23 12:45;50,55
2019-08-23 13:00;51,15
2019-08-23 13:15;55,55
2019-08-23 13:30;56,15
2019-08-23 13:45;51,45
2019-08-23 14:00;54,45
2019-08-23 14:15;45,8
2019-08-23 14:30;41,95
2019-08-23 14:45;46,55
2019-08-23 15:00;39,85
2019-08-23 15:15;41,5
2019-08-23 15:30;43,9
2019-08-23 15:45;35,7
2019-08-23 16:00;51,25
2019-08-23 16:15;45,35
2019-08-23 16:30;41,3
2019-08-23 16:45;43,35
2019-08-23 17:00;24,3
2019-08-23 17:15;26,2
2019-08-23 17:30;23,65
2019-08-23 17:45;16,6
2019-08-23 18:00;21,4
2019-08-23 18:15;30,25
2019-08-23 18:30;29,3
2019-08-23 18:45;30,35
2019-08-23 19:00;28,85
2019-08-23 19:15;29,3
2019-08-23 19:30;30,1
2019-08-23 19:45;30,9
2019-08-23 20:00;29,05
2019-08-23 20:15;28,9
2019-08-23 20:30;28,7
2019-08-23 20:45;27,95
2019-08-23 21:00;29,35
2019-08-23 21:15;31,1
2019-08-23 21:30;30,2
2019-08-23 21:45;31,55
2019-08-23 22:00;31,2
2019-08-23 22:15;29,95
2019-08-23 22:30;31,75
2019-08-23 22:45;34,2
2019-08-23 23:00;25,45
2019-08-23 23:15;26,55
2019-08-23 23:30;31,85
2019-08-23 23:45;33,8
2019-08-24 00:00;31,05
2019-08-24 00:15;24,95
2019-08-24 00:30;22,85
2019-08-24 00:45;24,7
2019-08-24 01:00;24,15
2019-08-24 01:15;20
2019-08-24 01:30;15,1
2019-08-24 01:45;15,2
2019-08-24 02:00;15,6
2019-08-24 02:15;14,9
2019-08-24 02:30;15,9
2019-08-24 02:45;15,15
2019-08-24 03:00;16,45
2019-08-24 03:15;18
2019-08-24 03:30;17,9
2019-08-24 03:45;18,8
2019-08-24 04:00;19,1
2019-08-24 04:15;20,9
2019-08-24 04:30;20,9
2019-08-24 04:45;19,25
2019-08-24 05:00;20,65
2019-08-24 05:15;20,85
2019-08-24 05:30;19,55
2019-08-24 05:45;20,35
2019-08-24 06:00;20,1
2019-08-24 06:15;18,65
2019-08-24 06:30;16,3
2019-08-24 06:45;14,5
2019-08-24 07:00;15,15
2019-08-24 07:15;14,05
2019-08-24 07:30;12,25
2019-08-24 07:45;12,95
2019-08-24 08:00;12,25
2019-08-24 08:15;10,25
2019-08-24 08:30;10,5
2019-08-24 08:45;12,65
2019-08-24 09:00;13,25
2019-08-24 09:15;11,9
2019-08-24 09:30;11,55
2019-08-24 09:45;13,2
2019-08-24 10:00;11,5
2019-08-24 10:15;11,95
2019-08-24 10:30;11,85
2019-08-24 10:45;9,9
2019-08-24 11:00;9,65
2019-08-24 11:15;13,1
2019-08-24 11:30;12
2019-08-24 11:45;11,7
2019-08-24 12:00;12,4
2019-08-24 12:15;12,25
2019-08-24 12:30;11,9
2019-08-24 12:45;11,2
2019-08-24 13:00;13,2
2019-08-24 13:15;13,25
2019-08-24 13:30;13,15
2019-08-24 13:45;13,05
2019-08-24 14:00;13,4
2019-08-24 14:15;13,05
2019-08-24 14:30;14,3
2019-08-24 14:45;15,8
2019-08-24 15:00;15,6
2019-08-24 15:15;16,95
2019-08-24 15:30;16,95
2019-08-24 15:45;16,3
2019-08-24 16:00;17,85
2019-08-24 16:15;19,4
2019-08-24 16:30;19,25
2019-08-24 16:45;18,5
2019-08-24 17:00;18,1
2019-08-24 17:15;17,55
2019-08-24 17:30;19,3
2019-08-24 17:45;19,35
2019-08-24 18:00;19,05
2019-08-24 18:15;18,05
2019-08-24 18:30;17,75
2019-08-24 18:45;19
2019-08-24 19:00;19,85
2019-08-24 19:15;19,25
2019-08-24 19:30;18,85
2019-08-24 19:45;21,15
2019-08-24 20:00;20,45
2019-08-24 20:15;19,5
2019-08-24 20:30;18,2
2019-08-24 20:45;17,25
2019-08-24 21:00;19
2019-08-24 21:15;19,7
2019-08-24 21:30;19,7
2019-08-24 21:45;21,75
2019-08-24 22:00;17,9
2019-08-24 22:15;18,5
2019-08-24 22:30;17,75
2019-08-24 22:45;19,5
2019-08-24 23:00;22,8
2019-08-24 23:15;23,35
2019-08-24 23:30;23
2019-08-24 23:45;24,25
2019-08-25 00:00;21,9
2019-08-25 00:15;19,2
2019-08-25 00:30;15,8
2019-08-25 00:45;15,6
2019-08-25 01:00;19,3
2019-08-25 01:15;14,1
2019-08-25 01:30;15,6
2019-08-25 01:45;15,1
2019-08-25 02:00;14,55
2019-08-25 02:15;15,25
2019-08-25 02:30;14,65
2019-08-25 02:45;15,8
2019-08-25 03:00;15,5
2019-08-25 03:15;17,5
2019-08-25 03:30;17,35
2019-08-25 03:45;17,7
2019-08-25 04:00;15,75
2019-08-25 04:15;15,9
2019-08-25 04:30;16
2019-08-25 04:45;17,45
2019-08-25 05:00;16,6
2019-08-25 05:15;16,9
2019-08-25 05:30;16,65
2019-08-25 05:45;16,5
2019-08-25 06:00;16,05
2019-08-25 06:15;15,45
2019-08-25 06:30;16
2019-08-25 06:45;15
2019-08-25 07:00;16,4
2019-08-25 07:15;14,9
2019-08-25 07:30;15,55
2019-08-25 07:45;15
2019-08-25 08:00;18,05
2019-08-25 08:15;18,65
2019-08-25 08:30;16,25
2019-08-25 08:45;17,6
2019-08-25 09:00;18,65
2019-08-25 09:15;16,85
2019-08-25 09:30;16,8
2019-08-25 09:45;16,45
2019-08-25 10:00;15,05
2019-08-25 10:15;14,9
2019-08-25 10:30;15,85
2019-08-25 10:45;15,7
2019-08-25 11:00;17
2019-08-25 11:15;17,2
2019-08-25 11:30;17,45
2019-08-25 11:45;16,95
2019-08-25 12:00;17,7
2019-08-25 12:15;17,7
2019-08-25 12:30;15,7
2019-08-25 12:45;17
2019-08-25 13:00;15,9
2019-08-25 13:15;14,1
2019-08-25 13:30;15,85
2019-08-25 13:45;17,35
2019-08-25 14:00;16,75
2019-08-25 14:15;17,45
2019-08-25 14:30;15,65
2019-08-25 14:45;17,85
2019-08-25 15:00;17
2019-08-25 15:15;17,55
2019-08-25 15:30;17,7
2019-08-25 15:45;18,4
2019-08-25 16:00;17,75
2019-08-25 16:15;19,65
2019-08-25 16:30;18,15
2019-08-25 16:45;18,15
2019-08-25 17:00;17,15
2019-08-25 17:15;17,4
2019-08-25 17:30;17,95
2019-08-25 17:45;18,05
2019-08-25 18:00;18,8
2019-08-25 18:15;17,7
2019-08-25 18:30;19,1
2019-08-25 18:45;18,6
2019-08-25 19:00;20,55
2019-08-25 19:15;19,45
2019-08-25 19:30;21,1
2019-08-25 19:45;19,9
2019-08-25 20:00;21,25
2019-08-25 20:15;20,95
2019-08-25 20:30;21,05
2019-08-25 20:45;19,65
2019-08-25 21:00;20,3
2019-08-25 21:15;18,8
2019-08-25 21:30;19,6
2019-08-25 21:45;20,25
2019-08-25 22:00;20,05
2019-08-25 22:15;17,6
2019-08-25 22:30;16,8
2019-08-25 22:45;16,9
2019-08-25 23:00;16,45
2019-08-25 23:15;13,15
2019-08-25 23:30;15,35
2019-08-25 23:45;17,3

